User: anonymous   Login
Location: Unspecified
(0.0000°N, 0.0000°E)
Time: 13:19:26
(UTC+00:00)
Language:

Vanguard 2 Rocket - Orbit

View from above orbital plane
View from above orbital plane
View from above satellite
View from above satellite

Ground track
Ground track

The orbit data is extracted from the following two-line orbital elements,

1 00012U 59001B   15212.15510412  .00000704  00000-0  42894-3 0  9999
2 00012 032.8981 108.5959 1667100 062.8550 313.2126 11.43768509318262
Epoch (UTC): 31 July 2015 03:43:20
Eccentricity: 0.1667100
inclination: 32.8981°
perigee height: 555 km
apogee height: 3330 km
right ascension of ascending node: 108.5959°
argument of perigee: 62.8550°
revolutions per day: 11.43768509
mean anomaly at epoch: 313.2126°
orbit number at epoch: 31826

The dashed part of the orbit path shows where the satellite is in the earth's shadow,  

DLR